World > North America > United States > New York > Alfred  

Alfred, NY Hourly Weather Updates

Feedback E-mail the Weather

Quick Clicks

Alfred, NY Weather Maps

°F °C°F °C
Alfred Weather Map
UTC Time: 4/13/2024, 15:44
Your Time:

Alfred, NY Regional Weather

Expires:202404131600;;675839
ASUS41 KALY 131510
RWRALY

NEW YORK STATE HOURLY WEATHER ROUNDUP
NATIONAL WEATHER SERVICE ALBANY NY
1100 AM EDT SAT APR 13 2024

NOTE: "FAIR" INDICATES FEW OR NO CLOUDS BELOW 12,000 FEET WITH NO
SIGNIFICANT WEATHER AND/OR NO OBSTRUCTIONS TO VISIBILITY.


NYZ001>004-010>016-019>021-085-131600-
WEST

  
CITY           SKY/WX    TMP DP  RH WIND       PRES   REMARKS
NIAGARA FALLS  CLOUDY    44  34  67 NW22G41   29.74R                  
BUFFALO        CLOUDY    43  34  70 W20G37    29.74R                  
DUNKIRK        CLOUDY    44  34  67 W15G26    29.82R                  
JAMESTOWN      CLOUDY    37  33  85 W17G28    29.80R WCI  27          
WELLSVILLE     LGT SNOW  34  32  92 W22G37    29.70R FOG     WCI  22  
ROCHESTER      LGT RAIN  41  36  82 W18G37    29.66R                  
PENN YAN       LGT RAIN  40  35  83 W18G30    29.64R WCI  31          
$$

             KEY
       WCI = WIND CHILL INDEX
       VSB = VISIBILITY
       HX  = HEAT INDEX
$$
  

SKY/WX - Weather  TMP - Temperature  DP - Dew Point  RH - Humidity
WIND - Wind Direction/Speed PRES - Barometric Pressure VSB - Visibility
WCI - Wind Chill Index E13G22 Wind - East Wind 13 mph/Gusts of 22 mph

Trending Headlines

Trending Entertainment Headlines

Alfred Radar Loop

Use the map search tool if you want to place a location marker on the radar map...

Alfred Quick Facts

National Two Day Weather Forecast


E-mail the Alfred Weather Forecast

Voice your opinion or tell us about page issues...